Change the Weather History Date:

Monday, July 29, 2013

  Actual Average (KLTS) Record (KLTS)
Temperature  
Mean Temperature 86 °F -  
Max Temperature 98 °F 96 °F 107 °F (2012)
Min Temperature 75 °F 71 °F 62 °F (2005)
Cooling Degree Days 21    
Growing Degree Days 36 (Base 50)    
Moisture  
Dew Point 67 °F    
Average Humidity 54    
Maximum Humidity 78    
Minimum Humidity 36    
Precipitation  
Precipitation 0.00 in - - ()
Sea Level Pressure  
Sea Level Pressure 29.92 in    
Wind  
Wind Speed 14 mph (SSE)    
Max Wind Speed 26 mph    
Max Gust Speed 33 mph    
Visibility 10 miles    
Events      
Averages and records for this station are not official NWS values.
T = Trace of Precipitation, MM = Missing Value Source: NWS Daily Summary

Daily Weather History Graph

Daily Weather History Graph

Search for Another Location

Airport or City:

Trip Planner

Search our weather history database for the weather conditions in past years. The results will help you decide how hot, cold, wet, or windy it might be!

Date:

Astronomy

Jul. 29, 2013 Rise Set
Actual Time 6:45 AM CDT 8:41 PM CDT
Civil Twilight 6:17 AM CDT 9:09 PM CDT
Nautical Twilight 5:43 AM CDT 9:43 PM CDT
Astronomical Twilight 5:07 AM CDT 10:19 PM CDT
Moon 12:25 AM CDT (7/29) 2:07 PM CDT (7/29)
Length of Visible Light 14h 52m
Length of Day
13h 56m
Waning Gibbous, 50% of the Moon is Illuminated
Jul 29
Waning Gibbous
Jul 29
Last Quarter
Aug 6
New
Aug 14
First Quarter
Aug 20
Full

Hourly Weather History & Observations

Time (CDT) Temp. Heat Index Dew Point Humidity Pressure Visibility Wind Dir Wind Speed Gust Speed Precip Events Conditions
12:15 AM 79.9 °F - 64.2 °F 59% 29.95 in 10.0 mi ESE 9.2 mph - N/A   Clear
12:35 AM 79.2 °F - 64.4 °F 60% 29.95 in 10.0 mi ESE 10.4 mph - N/A   Clear
12:55 AM 78.8 °F - 64.6 °F 62% 29.96 in 10.0 mi ESE 11.5 mph - N/A   Clear
1:15 AM 78.6 °F - 64.8 °F 62% 29.95 in 10.0 mi SE 11.5 mph - N/A   Clear
1:35 AM 78.1 °F - 64.9 °F 64% 29.95 in 10.0 mi ESE 10.4 mph - N/A   Clear
1:55 AM 77.2 °F - 65.3 °F 67% 29.95 in 10.0 mi ESE 9.2 mph - N/A   Clear
2:15 AM 77.0 °F - 65.5 °F 67% 29.94 in 10.0 mi SE 11.5 mph - N/A   Clear
2:35 AM 77.0 °F - 65.5 °F 67% 29.94 in 10.0 mi SE 11.5 mph - N/A   Clear
2:55 AM 77.0 °F - 65.5 °F 67% 29.94 in 10.0 mi SE 11.5 mph - N/A   Clear
3:15 AM 76.5 °F - 65.7 °F 69% 29.94 in 10.0 mi ESE 10.4 mph - N/A   Clear
3:35 AM 76.1 °F - 66.2 °F 71% 29.94 in 10.0 mi ESE 10.4 mph - N/A   Clear
3:55 AM 76.3 °F - 66.2 °F 71% 29.94 in 10.0 mi ESE 10.4 mph 17.3 mph N/A   Clear
4:15 AM 76.5 °F - 66.2 °F 70% 29.94 in 10.0 mi SE 12.7 mph - N/A   Clear
4:35 AM 76.3 °F - 66.4 °F 71% 29.93 in 10.0 mi SE 12.7 mph - N/A   Clear
4:55 AM 76.1 °F - 66.4 °F 72% 29.93 in 10.0 mi ESE 12.7 mph - N/A   Clear
5:15 AM 75.9 °F - 66.6 °F 73% 29.92 in 10.0 mi SE 12.7 mph - N/A   Clear
5:35 AM 76.1 °F - 67.1 °F 74% 29.92 in 10.0 mi SE 12.7 mph - N/A   Clear
5:55 AM 76.3 °F - 67.3 °F 74% 29.92 in 10.0 mi SE 12.7 mph - N/A   Clear
6:15 AM 76.1 °F - 67.6 °F 75% 29.92 in 10.0 mi SE 11.5 mph - N/A   Clear
6:35 AM 76.3 °F - 68.0 °F 75% 29.93 in 10.0 mi SE 15.0 mph - N/A   Clear
6:55 AM 75.9 °F - 68.0 °F 76% 29.93 in 10.0 mi SE 12.7 mph - N/A   Clear
7:15 AM 75.7 °F - 68.4 °F 78% 29.94 in 10.0 mi SE 12.7 mph - N/A   Clear
7:35 AM 76.1 °F - 68.7 °F 78% 29.94 in 10.0 mi ESE 12.7 mph - N/A   Clear
7:55 AM 76.6 °F - 68.9 °F 77% 29.94 in 10.0 mi SE 12.7 mph - N/A   Clear
8:15 AM 77.5 °F - 69.3 °F 76% 29.95 in 10.0 mi SE 15.0 mph - N/A   Clear
8:35 AM 78.8 °F - 69.4 °F 73% 29.95 in 10.0 mi SE 13.8 mph - N/A   Clear
8:55 AM 79.9 °F - 69.8 °F 71% 29.95 in 10.0 mi SE 12.7 mph 19.6 mph N/A   Clear
9:15 AM 82.0 °F 85.7 °F 69.6 °F 66% 29.95 in 10.0 mi SSE 13.8 mph 19.6 mph N/A   Clear
9:35 AM 83.7 °F 87.5 °F 69.4 °F 62% 29.96 in 10.0 mi South 15.0 mph 19.6 mph N/A   Clear
9:55 AM 85.3 °F 89.4 °F 69.6 °F 59% 29.96 in 10.0 mi SSE 16.1 mph - N/A   Clear
10:15 AM 86.9 °F 91.3 °F 69.6 °F 56% 29.96 in 10.0 mi SSE 17.3 mph - N/A   Clear
10:35 AM 87.8 °F 91.8 °F 68.9 °F 53% 29.96 in 10.0 mi South 18.4 mph 21.9 mph N/A   Clear
10:55 AM 87.4 °F 91.5 °F 69.1 °F 54% 29.96 in 10.0 mi South 15.0 mph - N/A   Clear
11:15 AM 88.3 °F 92.4 °F 68.7 °F 52% 29.96 in 10.0 mi South 17.3 mph - N/A   Clear
11:35 AM 90.1 °F 94.4 °F 68.4 °F 49% 29.96 in 10.0 mi South 18.4 mph 23.0 mph N/A   Clear
11:55 AM 90.5 °F 94.6 °F 68.2 °F 48% 29.96 in 10.0 mi South 15.0 mph - N/A   Clear
12:15 PM 92.5 °F 96.9 °F 68.4 °F 45% 29.96 in 10.0 mi South 16.1 mph 21.9 mph N/A   Clear
12:35 PM 93.2 °F 98.3 °F 69.3 °F 45% 29.95 in 10.0 mi SSE 15.0 mph 20.7 mph N/A   Scattered Clouds
12:55 PM 93.4 °F 98.1 °F 68.2 °F 44% 29.94 in 10.0 mi South 17.3 mph 24.2 mph N/A   Clear
1:15 PM 93.7 °F 97.2 °F 66.6 °F 41% 29.94 in 10.0 mi South 19.6 mph 26.5 mph N/A   Clear
1:35 PM 94.8 °F 99.8 °F 68.4 °F 42% 29.93 in 10.0 mi South 17.3 mph 26.5 mph N/A   Clear
1:55 PM 96.1 °F 101.0 °F 67.8 °F 40% 29.93 in 10.0 mi SSW 20.7 mph 24.2 mph N/A   Scattered Clouds
2:15 PM 96.4 °F 101.1 °F 67.6 °F 39% 29.92 in 7.0 mi South 20.7 mph 26.5 mph N/A   Clear
2:35 PM 96.8 °F 101.2 °F 67.5 °F 38% 29.92 in 10.0 mi SSW 17.3 mph 28.8 mph N/A   Clear
2:55 PM 96.8 °F 101.2 °F 67.5 °F 38% 29.91 in 5.0 mi South 20.7 mph 32.2 mph N/A   Haze
3:15 PM 97.5 °F 102.6 °F 68.0 °F 38% 29.91 in 10.0 mi South 18.4 mph 31.1 mph N/A   Clear
3:35 PM 97.5 °F 102.6 °F 68.4 °F 38% 29.91 in 5.0 mi South 21.9 mph 32.2 mph N/A   Haze
3:55 PM 96.1 °F 102.3 °F 69.6 °F 42% 29.91 in 7.0 mi SSE 21.9 mph 33.4 mph N/A   Clear
4:15 PM 95.2 °F 101.0 °F 69.6 °F 43% 29.90 in 10.0 mi SSE 19.6 mph 29.9 mph N/A   Clear
4:35 PM 95.7 °F 101.5 °F 69.4 °F 42% 29.89 in 10.0 mi South 16.1 mph - N/A   Clear
4:55 PM 96.8 °F 102.5 °F 68.9 °F 40% 29.88 in 10.0 mi SSE 23.0 mph 27.6 mph N/A   Clear
5:15 PM 95.9 °F 100.7 °F 68.2 °F 40% 29.87 in 10.0 mi SSE 23.0 mph - N/A   Clear
5:35 PM 96.3 °F 100.8 °F 67.5 °F 39% 29.87 in 7.0 mi South 23.0 mph 29.9 mph N/A   Clear
5:55 PM 96.4 °F 101.1 °F 67.8 °F 39% 29.86 in 5.0 mi South 21.9 mph 32.2 mph N/A   Haze
6:15 PM 96.8 °F 101.8 °F 67.8 °F 39% 29.85 in 5.0 mi South 26.5 mph 32.2 mph N/A   Haze
6:35 PM 95.9 °F 100.1 °F 67.1 °F 39% 29.85 in 4.0 mi South 25.3 mph 32.2 mph N/A   Haze
6:55 PM 95.2 °F 99.3 °F 67.5 °F 40% 29.86 in 7.0 mi South 21.9 mph 29.9 mph N/A   Clear
7:15 PM 95.2 °F 99.3 °F 67.3 °F 40% 29.86 in 10.0 mi South 19.6 mph 31.1 mph N/A   Clear
7:35 PM 94.6 °F 97.8 °F 66.4 °F 39% 29.86 in 10.0 mi South 25.3 mph 31.1 mph N/A   Clear
7:55 PM 94.1 °F 97.3 °F 66.2 °F 40% 29.87 in 10.0 mi SSE 19.6 mph 26.5 mph N/A   Clear
8:15 PM 93.6 °F 96.4 °F 66.0 °F 40% 29.87 in 10.0 mi SSE 20.7 mph 26.5 mph N/A   Clear
8:35 PM 93.2 °F 95.8 °F 65.3 °F 40% 29.87 in 10.0 mi SSE 18.4 mph - N/A   Clear
8:55 PM 92.3 °F 94.7 °F 65.3 °F 41% 29.86 in 10.0 mi SSE 18.4 mph 25.3 mph N/A   Clear
9:15 PM 92.5 °F 93.7 °F 63.7 °F 38% 29.87 in 10.0 mi South 19.6 mph 29.9 mph N/A   Clear
9:35 PM 92.5 °F 93.0 °F 62.1 °F 36% 29.87 in 10.0 mi South 23.0 mph 27.6 mph N/A   Clear
9:55 PM 91.4 °F 92.1 °F 62.4 °F 38% 29.90 in 10.0 mi SSE 17.3 mph 23.0 mph N/A   Clear
10:15 PM 90.1 °F 91.6 °F 64.4 °F 42% 29.91 in 10.0 mi SSE 13.8 mph - N/A   Clear
10:35 PM 89.8 °F 91.4 °F 64.6 °F 43% 29.92 in 10.0 mi SSE 12.7 mph - N/A   Clear
10:55 PM 89.2 °F 90.9 °F 64.9 °F 44% 29.92 in 10.0 mi SSE 11.5 mph - N/A   Clear
11:15 PM 88.0 °F 90.0 °F 65.7 °F 47% 29.93 in 10.0 mi SSE 10.4 mph - N/A   Clear
11:35 PM 87.4 °F 89.5 °F 65.3 °F 48% 29.93 in 10.0 mi SSE 15.0 mph - N/A   Clear
11:55 PM 88.5 °F 89.5 °F 63.5 °F 43% 29.91 in 10.0 mi South 17.3 mph 24.2 mph N/A   Clear